Flag for Argentina Weather past 2 weeks in Corrientes, Corrientes, Argentina

Now
84 °F

Clear.


Feels Like: 86 °F
Forecast: N/A
Wind: 9 mph from Northeast

Location: Resistencia Aero.

Current Time: Aug 1, 2015 at 7:19:49 PM

Latest Report: Aug 1, 2015 at 6:00 PM


Visibility: 3 mi

Pressure: 29.74 "Hg

Humidity: 51%

Dew point: 64 °F

Location of CorrientesLocation

Historic Weather in Corrientes — Graph

°F

Corrientes temperature yesterday

Maximum temperature yesterday: 90 °F (at 3:00 PM)
Minimum temperature yesterday: 70 °F (at 1:00 AM)
Average temperature yesterday: 77 °F

Past Weeks' High & Low Weather Summary

 TemperatureHumidityPressure
High90 °F (Jul 30, 2:00 PM)100% (Jul 18, 3:00 AM)30.33 "Hg (Jul 18, 3:00 AM)
Low39 °F (Jul 21, 7:00 AM)32% (Jul 20, 5:00 PM)29.74 "Hg (Jul 19, 3:00 PM)
Average64 °F77%30.02 "Hg
* Reported Jul 17 5:00 PM — Aug 1 5:00 PM, Corrientes, Weather by CustomWeather, © 2015

Note: Actual official high and low records may vary slightly from our data, if they occured in-between our weather recording intervals... More about our weather records

Advertising

Corrientes weather history for previous 24 hours

 ConditionsComfort  
Time TempWeatherWind HumidityBarometerVisibility
5:00 PM
Sat, Aug 1
86 °FClear.8 mph49%29.74 "Hg4 mi
4:00 PM86 °FClear.9 mph49%29.77 "Hg4 mi
3:00 PM86 °FClear.12 mph49%29.80 "Hg4 mi
2:00 PM84 °FClear.9 mph51%29.83 "Hg3 mi
1:00 PM81 °FClear.10 mph58%29.86 "Hg3 mi
12:00 PM79 °FClear.8 mph61%29.89 "Hg3 mi
11:00 AM72 °FPartly sunny.9 mph78%29.92 "Hg2 mi
10:00 AM68 °FClear.6 mph83%29.92 "Hg4 mi
9:00 AM66 °FClear.7 mph83%29.92 "Hg4 mi
8:00 AM64 °FClear.6 mph88%29.92 "Hg5 mi
7:00 AM64 °FSunny.6 mph83%29.92 "Hg10 mi
6:00 AM64 °FClear.7 mph88%29.92 "Hg10 mi
5:00 AM64 °FClear.6 mph88%29.92 "Hg10 mi
4:00 AM64 °FClear.7 mph88%29.95 "Hg10 mi
3:00 AM66 °FClear.7 mph88%29.95 "Hg10 mi
2:00 AM66 °FClear.7 mph88%29.98 "Hg10 mi
1:00 AM66 °FClear.8 mph88%29.98 "Hg10 mi
12:00 AM68 °FClear.6 mph83%29.98 "Hg10 mi
11:00 PM
Fri, Jul 31
70 °FClear.8 mph83%29.95 "Hg10 mi
10:00 PM72 °FClear.6 mph83%29.95 "Hg10 mi
9:00 PM70 °FClear.2 mph83%29.89 "Hg5 mi
8:00 PM73 °FClear.No wind74%29.89 "Hg5 mi
7:00 PM79 °FClear.No wind61%29.86 "Hg10 mi
Weather by CustomWeather, © 2015

See weather overviewHow to use our weather pages